Time,TemperatureF,DewpointF,PressureIn,WindDirection,WindDirectionDegrees,WindSpeedMPH,WindSpeedGustMPH,Humidity,HourlyPrecipIn,Conditions,Clouds,dailyrainin,SoftwareType,DateUTC
2013-08-12 00:33:00,61.0,42.0,29.85,North,0,0.0,-999.0,49,0.00,,,-99.99,,2013-08-12 07:33:00,
2013-08-12 00:43:00,61.0,42.0,29.85,North,0,0.0,-999.0,49,0.00,,,-99.99,,2013-08-12 07:43:00,
2013-08-12 00:52:00,61.0,42.0,29.85,North,0,0.0,-999.0,49,0.00,,,-99.99,,2013-08-12 07:52:00,
2013-08-12 01:33:00,58.0,39.0,29.84,North,0,0.0,-999.0,50,0.00,,,-99.99,,2013-08-12 08:33:00,
2013-08-12 01:43:00,58.0,39.0,29.84,North,0,0.0,-999.0,50,0.00,,,-99.99,,2013-08-12 08:43:00,
2013-08-12 01:53:00,58.0,39.0,29.84,North,0,0.0,-999.0,50,0.00,,,-99.99,,2013-08-12 08:53:00,
2013-08-12 02:32:00,56.0,36.0,29.84,North,0,0.0,-999.0,47,0.00,,,-99.99,,2013-08-12 09:32:00,
2013-08-12 02:43:00,56.0,36.0,29.84,North,0,0.0,-999.0,47,0.00,,,-99.99,,2013-08-12 09:43:00,
2013-08-12 02:52:00,56.0,36.0,29.84,North,0,0.0,-999.0,47,0.00,,,-99.99,,2013-08-12 09:52:00,
2013-08-12 08:43:00,64.0,37.0,29.86,North,0,0.0,-999.0,36,0.00,,,-99.99,,2013-08-12 15:43:00,
2013-08-12 08:52:00,64.0,37.0,29.86,North,0,0.0,-999.0,36,0.00,,,-99.99,,2013-08-12 15:52:00,
2013-08-12 09:32:00,73.0,36.0,29.86,North,0,0.0,-999.0,26,0.00,,,-99.99,,2013-08-12 16:32:00,
2013-08-12 09:42:00,73.0,36.0,29.86,North,0,0.0,-999.0,26,0.00,,,-99.99,,2013-08-12 16:42:00,
2013-08-12 09:52:00,73.0,36.0,29.86,North,0,0.0,-999.0,26,0.00,,,-99.99,,2013-08-12 16:52:00,
2013-08-12 10:43:00,79.0,32.0,29.87,North,0,0.0,-999.0,18,0.00,,,-99.99,,2013-08-12 17:43:00,
2013-08-12 10:52:00,79.0,32.0,29.87,North,0,0.0,-999.0,18,0.00,,,-99.99,,2013-08-12 17:52:00,
2013-08-12 11:32:00,81.0,32.0,29.88,North,0,0.0,-999.0,17,0.00,,,-99.99,,2013-08-12 18:32:00,
2013-08-12 11:43:00,81.0,32.0,29.88,North,0,0.0,-999.0,17,0.00,,,-99.99,,2013-08-12 18:43:00,
2013-08-12 11:52:00,81.0,32.0,29.88,North,0,0.0,-999.0,17,0.00,,,-99.99,,2013-08-12 18:52:00,
2013-08-12 12:43:00,80.0,31.0,29.87,SSW,200,1.0,-999.0,17,0.00,,,-99.99,,2013-08-12 19:43:00,
2013-08-12 12:52:00,80.0,31.0,29.87,SSW,200,1.0,-999.0,17,0.00,,,-99.99,,2013-08-12 19:52:00,
2013-08-12 13:32:00,81.0,33.0,29.87,North,0,0.0,-999.0,18,0.00,,,-99.99,,2013-08-12 20:32:00,
2013-08-12 13:42:00,81.0,33.0,29.87,North,0,0.0,-999.0,18,0.00,,,-99.99,,2013-08-12 20:42:00,
2013-08-12 13:52:00,81.0,33.0,29.87,North,0,0.0,-999.0,18,0.00,,,-99.99,,2013-08-12 20:52:00,
2013-08-12 14:32:00,81.0,36.0,29.86,SSE,150,1.0,-999.0,20,0.00,,,-99.99,,2013-08-12 21:32:00,
2013-08-12 14:43:00,81.0,36.0,29.86,SSE,150,1.0,-999.0,20,0.00,,,-99.99,,2013-08-12 21:43:00,
2013-08-12 14:52:00,81.0,36.0,29.86,SSE,150,1.0,-999.0,20,0.00,,,-99.99,,2013-08-12 21:52:00,
2013-08-12 15:32:00,82.0,34.0,29.84,ESE,120,5.0,-999.0,18,0.00,,,-99.99,,2013-08-12 22:32:00,
2013-08-12 15:43:00,82.0,34.0,29.84,ESE,120,5.0,-999.0,18,0.00,,,-99.99,,2013-08-12 22:43:00,
2013-08-12 15:53:00,82.0,34.0,29.84,ESE,120,5.0,-999.0,18,0.00,,,-99.99,,2013-08-12 22:53:00,
2013-08-12 16:43:00,80.0,35.0,29.84,North,0,0.0,-999.0,20,0.00,,,-99.99,,2013-08-12 23:43:00,
2013-08-12 16:53:00,80.0,35.0,29.84,North,0,0.0,-999.0,20,0.00,,,-99.99,,2013-08-12 23:53:00,
2013-08-12 17:24:00,78.0,36.0,29.83,SSE,150,3.0,-999.0,22,0.00,,,-99.99,,2013-08-13 00:24:00,
2013-08-12 17:34:00,78.0,36.0,29.83,SSE,150,3.0,-999.0,22,0.00,,,-99.99,,2013-08-13 00:34:00,
2013-08-12 17:45:00,78.0,36.0,29.83,SSE,150,3.0,-999.0,22,0.00,,,-99.99,,2013-08-13 00:45:00,
2013-08-12 17:53:00,78.0,36.0,29.83,SSE,150,3.0,-999.0,22,0.00,,,-99.99,,2013-08-13 00:53:00,
2013-08-12 17:54:00,75.0,38.0,29.83,North,0,0.0,-999.0,26,0.00,,,-99.99,,2013-08-13 00:54:00,
2013-08-12 18:42:00,75.0,38.0,29.83,North,0,0.0,-999.0,26,0.00,,,-99.99,,2013-08-13 01:42:00,
2013-08-12 19:42:00,72.0,41.0,29.82,North,0,0.0,-999.0,32,0.00,,,-99.99,,2013-08-13 02:42:00,
2013-08-12 19:52:00,72.0,41.0,29.82,North,0,0.0,-999.0,32,0.00,,,-99.99,,2013-08-13 02:52:00,
2013-08-12 19:54:00,70.0,45.0,29.83,North,0,0.0,-999.0,40,0.00,,,-99.99,,2013-08-13 02:54:00,
2013-08-12 20:43:00,70.0,45.0,29.83,North,0,0.0,-999.0,40,0.00,,,-99.99,,2013-08-13 03:43:00,
2013-08-12 21:42:00,68.0,46.0,29.84,North,0,0.0,-999.0,45,0.00,,,-99.99,,2013-08-13 04:42:00,
2013-08-12 21:53:00,68.0,46.0,29.84,North,0,0.0,-999.0,45,0.00,,,-99.99,,2013-08-13 04:53:00,
2013-08-12 22:42:00,65.0,46.0,29.85,North,0,0.0,-999.0,51,0.00,,,-99.99,,2013-08-13 05:42:00,
2013-08-12 22:52:00,65.0,46.0,29.85,North,0,0.0,-999.0,51,0.00,,,-99.99,,2013-08-13 05:52:00,
2013-08-12 23:42:00,60.0,41.0,29.85,North,0,0.0,-999.0,49,0.00,,,-99.99,,2013-08-13 06:42:00,
2013-08-12 23:52:00,60.0,41.0,29.85,North,0,0.0,-999.0,49,0.00,,,-99.99,,2013-08-13 06:52:00,